| time (UTC) | temp F | wind direction | speed knots | gust knots | rain 1hr in | rain 24hr in | rain mn in | humidity % | barometer mb |
| 20260508141800 | 84 | 305 | 4.3 | 5.2 | 0.00 | 0.00 | 0.00 | 43 | 1015.0 |
| 20260508141257 | 84 | 297 | 3.5 | 5.2 | 0.00 | 0.00 | 0.00 | 44 | 1014.9 |
| 20260508140754 | 84 | 167 | 0.9 | 1.7 | 0.00 | 0.00 | 0.00 | 46 | 1015.0 |
| 20260508140251 | 84 | 73 | 2.6 | 2.6 | 0.00 | 0.00 | 0.00 | 45 | 1015.0 |
| 20260508135747 | 85 | 302 | 2.6 | 5.2 | 0.00 | 0.00 | 0.00 | 44 | 1015.0 |
| 20260508135243 | 84 | 14 | 1.7 | 1.7 | 0.00 | 0.00 | 0.00 | 46 | 1014.9 |
| 20260508134739 | 84 | 36 | 0.9 | 0.9 | 0.00 | 0.00 | 0.00 | 45 | 1015.0 |
| 20260508134236 | 86 | 296 | 2.6 | 4.3 | 0.00 | 0.00 | 0.00 | 44 | 1014.9 |
| 20260508133733 | 86 | 294 | 0.9 | 1.7 | 0.00 | 0.00 | 0.00 | 45 | 1015.0 |
| 20260508133231 | 85 | 153 | 0.0 | 0.0 | 0.00 | 0.00 | 0.00 | 46 | 1015.1 |
| 20260508132728 | 85 | 281 | 2.6 | 5.2 | 0.00 | 0.00 | 0.00 | 45 | 1015.0 |
| 20260508132226 | 84 | 299 | 2.6 | 2.6 | 0.00 | 0.00 | 0.00 | 46 | 1015.1 |
| 20260508131721 | 84 | 168 | 2.6 | 4.3 | 0.00 | 0.00 | 0.00 | 48 | 1015.0 |
| 20260508131218 | 85 | 269 | 3.5 | 6.1 | 0.00 | 0.00 | 0.00 | 46 | 1014.9 |
| 20260508130714 | 84 | 155 | 0.9 | 0.9 | 0.00 | 0.00 | 0.00 | 46 | 1015.1 |
| 20260508130212 | 85 | 309 | 2.6 | 2.6 | 0.00 | 0.00 | 0.00 | 46 | 1015.2 |
| 20260508125707 | 85 | 192 | 0.9 | 1.7 | 0.00 | 0.00 | 0.00 | 49 | 1015.2 |
| 20260508125203 | 84 | 2 | 1.7 | 2.6 | 0.00 | 0.00 | 0.00 | 48 | 1015.2 |
| 20260508124702 | 84 | 292 | 2.6 | 2.6 | 0.00 | 0.00 | 0.00 | 50 | 1015.3 |
| 20260508124159 | 84 | 199 | 2.6 | 7.0 | 0.00 | 0.00 | 0.00 | 50 | 1015.1 |
| 20260508123657 | 83 | 139 | 2.6 | 2.6 | 0.00 | 0.00 | 0.00 | 50 | 1015.3 |
| 20260508123155 | 84 | 197 | 2.6 | 4.3 | 0.00 | 0.00 | 0.00 | 50 | 1015.5 |
| 20260508122651 | 84 | 265 | 4.3 | 5.2 | 0.00 | 0.00 | 0.00 | 48 | 1015.7 |
| 20260508122147 | 85 | 99 | 5.2 | 7.0 | 0.00 | 0.00 | 0.00 | 48 | 1015.5 |
| 20260508121645 | 84 | 264 | 4.3 | 5.2 | 0.00 | 0.00 | 0.00 | 50 | 1015.7 |
| 20260508121143 | 84 | 170 | 1.7 | 2.6 | 0.00 | 0.00 | 0.00 | 52 | 1015.4 |
| 20260508120640 | 84 | 154 | 1.7 | 2.6 | 0.00 | 0.00 | 0.00 | 52 | 1015.5 |
| 20260508120139 | 83 | 168 | 2.6 | 4.3 | 0.00 | 0.00 | 0.00 | 53 | 1015.8 |
| 20260508115636 | 82 | 202 | 2.6 | 2.6 | 0.00 | 0.00 | 0.00 | 54 | 1015.8 |
| 20260508115133 | 81 | 116 | 3.5 | 4.3 | 0.00 | 0.00 | 0.00 | 55 | 1015.8 |
| 20260508114630 | 82 | 194 | 2.6 | 5.2 | 0.00 | 0.00 | 0.00 | 54 | 1015.6 |
| 20260508114126 | 82 | 190 | 0.9 | 1.7 | 0.00 | 0.00 | 0.00 | 55 | 1015.8 |
| 20260508113623 | 82 | 296 | 2.6 | 4.3 | 0.00 | 0.00 | 0.00 | 54 | 1015.9 |
| 20260508113122 | 82 | 151 | 1.7 | 2.6 | 0.00 | 0.00 | 0.00 | 55 | 1015.9 |
| 20260508112617 | 82 | 66 | 3.5 | 5.2 | 0.00 | 0.00 | 0.00 | 55 | 1016.0 |
| 20260508112115 | 82 | 121 | 1.7 | 1.7 | 0.00 | 0.00 | 0.00 | 56 | 1015.9 |
| 20260508111611 | 82 | 233 | 0.9 | 2.6 | 0.00 | 0.00 | 0.00 | 57 | 1016.0 |
| 20260508111108 | 82 | 180 | 4.3 | 5.2 | 0.00 | 0.00 | 0.00 | 55 | 1016.2 |
| 20260508110607 | 82 | 137 | 2.6 | 4.3 | 0.00 | 0.00 | 0.00 | 56 | 1016.1 |
| 20260508105557 | 82 | 250 | 1.7 | 4.3 | 0.00 | 0.00 | 0.00 | 57 | 1016.3 |
| 20260508105055 | 82 | 187 | 0.9 | 0.9 | 0.00 | 0.00 | 0.00 | 59 | 1016.1 |
| 20260508104552 | 81 | 162 | 1.7 | 1.7 | 0.00 | 0.00 | 0.00 | 58 | 1016.6 |
| 20260508104049 | 82 | 193 | 1.7 | 1.7 | 0.00 | 0.00 | 0.00 | 60 | 1016.3 |
| 20260508103546 | 82 | 173 | 3.5 | 5.2 | 0.00 | 0.00 | 0.00 | 58 | 1016.3 |
| 20260508103043 | 82 | 154 | 2.6 | 4.3 | 0.00 | 0.00 | 0.00 | 57 | 1016.4 |
| 20260508102540 | 81 | 196 | 2.6 | 4.3 | 0.00 | 0.00 | 0.00 | 59 | 1016.4 |
| 20260508102038 | 81 | 123 | 3.5 | 5.2 | 0.00 | 0.00 | 0.00 | 60 | 1016.3 |
| 20260508101535 | 81 | 264 | 2.6 | 5.2 | 0.00 | 0.00 | 0.00 | 61 | 1016.2 |
| 20260508101032 | 81 | 153 | 3.5 | 6.1 | 0.00 | 0.00 | 0.00 | 60 | 1016.3 |
| 20260508100531 | 81 | 164 | 1.7 | 2.6 | 0.00 | 0.00 | 0.00 | 60 | 1016.3 |
| 20260508100027 | 81 | 164 | 4.3 | 6.1 | 0.00 | 0.00 | 0.00 | 59 | 1016.5 |
| 20260508095524 | 80 | 171 | 3.5 | 5.2 | 0.00 | 0.00 | 0.00 | 58 | 1016.4 |
| 20260508095021 | 81 | 179 | 6.1 | 7.8 | 0.00 | 0.00 | 0.00 | 57 | 1016.7 |
| 20260508094518 | 80 | 152 | 0.9 | 0.9 | 0.00 | 0.00 | 0.00 | 57 | 1016.7 |
| 20260508094015 | 80 | 173 | 4.3 | 6.1 | 0.00 | 0.00 | 0.00 | 57 | 1016.6 |
| 20260508093512 | 80 | 154 | 1.7 | 2.6 | 0.00 | 0.00 | 0.00 | 58 | 1017.1 |
| 20260508093010 | 79 | 151 | 3.5 | 4.3 | 0.00 | 0.00 | 0.00 | 58 | 1016.8 |
| 20260508092506 | 79 | 151 | 2.6 | 4.3 | 0.00 | 0.00 | 0.00 | 60 | 1017.2 |
| 20260508092006 | 80 | 288 | 1.7 | 2.6 | 0.00 | 0.00 | 0.00 | 60 | 1017.2 |
| 20260508091502 | 80 | 175 | 1.7 | 2.6 | 0.00 | 0.00 | 0.00 | 59 | 1016.9 |
| 20260508090959 | 80 | 256 | 1.7 | 4.3 | 0.00 | 0.00 | 0.00 | 61 | 1017.3 |
| 20260508090458 | 78 | 163 | 2.6 | 2.6 | 0.00 | 0.00 | 0.00 | 61 | 1017.4 |
| 20260508085953 | 78 | 160 | 0.9 | 0.9 | 0.00 | 0.00 | 0.00 | 66 | 1017.3 |
| 20260508085449 | 77 | 184 | 0.9 | 0.9 | 0.00 | 0.00 | 0.00 | 66 | 1017.4 |
| 20260508084946 | 78 | 179 | 3.5 | 6.1 | 0.00 | 0.00 | 0.00 | 65 | 1017.7 |
| 20260508084443 | 78 | 215 | 3.5 | 5.2 | 0.00 | 0.00 | 0.00 | 62 | 1017.2 |
| 20260508083941 | 78 | 173 | 1.7 | 2.6 | 0.00 | 0.00 | 0.00 | 63 | 1017.5 |
| 20260508083438 | 78 | 181 | 4.3 | 7.0 | 0.00 | 0.00 | 0.00 | 61 | 1017.6 |
| 20260508082938 | 77 | 158 | 2.6 | 5.2 | 0.00 | 0.00 | 0.00 | 60 | 1017.7 |
| 20260508082435 | 77 | 143 | 2.6 | 4.3 | 0.00 | 0.00 | 0.00 | 60 | 1017.5 |
| 20260508081933 | 77 | 209 | 3.5 | 4.3 | 0.00 | 0.00 | 0.00 | 60 | 1017.8 |
| 20260508081430 | 76 | 130 | 4.3 | 5.2 | 0.00 | 0.00 | 0.00 | 61 | 1017.8 |
| 20260508080926 | 76 | 179 | 1.7 | 1.7 | 0.00 | 0.00 | 0.00 | 62 | 1017.7 |
| 20260508080424 | 76 | 181 | 1.7 | 1.7 | 0.00 | 0.00 | 0.00 | 61 | 1017.9 |
| 20260508075920 | 75 | 150 | 0.9 | 0.9 | 0.00 | 0.00 | 0.00 | 60 | 1017.8 |
| 20260508075418 | 75 | 260 | 1.7 | 2.6 | 0.00 | 0.00 | 0.00 | 59 | 1017.7 |
| 20260508074916 | 74 | 324 | 4.3 | 7.0 | 0.00 | 0.00 | 0.00 | 58 | 1017.8 |
| 20260508074413 | 74 | 254 | 4.3 | 5.2 | 0.00 | 0.00 | 0.00 | 57 | 1017.7 |
| 20260508073909 | 73 | 14 | 0.9 | 1.7 | 0.00 | 0.00 | 0.00 | 59 | 1017.8 |
| 20260508073408 | 73 | 159 | 4.3 | 6.1 | 0.00 | 0.00 | 0.00 | 59 | 1017.7 |
| 20260508072904 | 73 | 170 | 2.6 | 5.2 | 0.00 | 0.00 | 0.00 | 61 | 1017.5 |
| 20260508072400 | 72 | 154 | 0.9 | 2.6 | 0.00 | 0.00 | 0.00 | 64 | 1017.7 |
| 20260508071857 | 71 | 257 | 2.6 | 4.3 | 0.00 | 0.00 | 0.00 | 64 | 1017.6 |
| 20260508071356 | 71 | 174 | 3.5 | 5.2 | 0.00 | 0.00 | 0.00 | 67 | 1017.6 |
| 20260508070853 | 71 | 190 | 5.2 | 6.1 | 0.00 | 0.00 | 0.00 | 66 | 1017.6 |
| 20260508070351 | 71 | 151 | 0.9 | 2.6 | 0.00 | 0.00 | 0.00 | 67 | 1017.7 |
| 20260508065848 | 71 | 152 | 2.6 | 2.6 | 0.00 | 0.00 | 0.00 | 65 | 1017.8 |
| 20260508065347 | 71 | 152 | 2.6 | 4.3 | 0.00 | 0.00 | 0.00 | 64 | 1017.6 |
| 20260508064844 | 70 | 162 | 1.7 | 1.7 | 0.00 | 0.00 | 0.00 | 66 | 1017.5 |
| 20260508064341 | 70 | 153 | 0.9 | 0.9 | 0.00 | 0.00 | 0.00 | 67 | 1017.6 |
| 20260508063839 | 69 | 149 | 1.7 | 1.7 | 0.00 | 0.00 | 0.00 | 66 | 1017.7 |
| 20260508063337 | 68 | 166 | 0.9 | 0.9 | 0.00 | 0.00 | 0.00 | 69 | 1017.8 |
| 20260508062828 | 68 | 172 | 2.6 | 2.6 | 0.00 | 0.00 | 0.00 | 71 | 1017.8 |
| 20260508062326 | 68 | 170 | 1.7 | 1.7 | 0.00 | 0.00 | 0.00 | 72 | 1017.8 |
| 20260508061823 | 67 | 153 | 0.9 | 0.9 | 0.00 | 0.00 | 0.00 | 73 | 1017.8 |
| 20260508061320 | 67 | 142 | 1.7 | 1.7 | 0.00 | 0.00 | 0.00 | 74 | 1018.0 |
| 20260508060816 | 67 | 149 | 0.0 | 0.9 | 0.00 | 0.00 | 0.00 | 75 | 1017.9 |
| 20260508060314 | 67 | 165 | 0.9 | 1.7 | 0.00 | 0.00 | 0.00 | 75 | 1018.2 |
| 20260508055814 | 66 | 156 | 1.7 | 1.7 | 0.00 | 0.00 | 0.00 | 73 | 1018.2 |
| 20260508055312 | 66 | 146 | 0.9 | 0.9 | 0.00 | 0.00 | 0.00 | 75 | 1018.0 |
| 20260508054808 | 65 | 147 | 1.7 | 1.7 | 0.00 | 0.00 | 0.00 | 75 | 1018.0 |
| 20260508054306 | 65 | 144 | 0.0 | 0.9 | 0.00 | 0.00 | 0.00 | 76 | 1018.1 |
| 20260508053802 | 64 | 147 | 0.0 | 0.0 | 0.00 | 0.00 | 0.00 | 77 | 1017.8 |
| 20260508053300 | 64 | 134 | 0.0 | 0.0 | 0.00 | 0.00 | 0.00 | 77 | 1018.0 |
| 20260508052757 | 63 | 151 | 0.0 | 0.0 | 0.00 | 0.00 | 0.00 | 78 | 1018.0 |
| 20260508052254 | 62 | 108 | 0.0 | 0.0 | 0.00 | 0.00 | 0.00 | 78 | 1018.0 |
| 20260508051750 | 62 | 158 | 0.0 | 0.9 | 0.00 | 0.00 | 0.00 | 80 | 1018.1 |
| 20260508051245 | 62 | 147 | 0.0 | 0.9 | 0.00 | 0.00 | 0.00 | 80 | 1017.8 |
| 20260508050742 | 61 | 150 | 0.0 | 0.9 | 0.00 | 0.00 | 0.00 | 81 | 1018.0 |
| 20260508050240 | 61 | 153 | 0.9 | 0.9 | 0.00 | 0.00 | 0.00 | 80 | 1017.7 |
| 20260508045735 | 61 | 151 | 0.0 | 0.9 | 0.00 | 0.00 | 0.00 | 80 | 1017.7 |
| 20260508045233 | 61 | 146 | 0.0 | 0.9 | 0.00 | 0.00 | 0.00 | 81 | 1017.6 |
| 20260508044731 | 60 | 143 | 0.9 | 0.9 | 0.00 | 0.00 | 0.00 | 81 | 1017.6 |
| 20260508044228 | 60 | 141 | 0.0 | 0.0 | 0.00 | 0.00 | 0.00 | 82 | 1017.4 |
| 20260508043724 | 60 | 149 | 0.0 | 0.0 | 0.00 | 0.00 | 0.00 | 82 | 1017.4 |
| 20260508043222 | 60 | 153 | 0.0 | 0.0 | 0.00 | 0.00 | 0.00 | 82 | 1017.5 |
| 20260508042718 | 59 | 134 | 0.0 | 0.0 | 0.00 | 0.00 | 0.00 | 82 | 1017.2 |
| 20260508042215 | 59 | 135 | 0.0 | 0.0 | 0.00 | 0.00 | 0.00 | 82 | 1017.5 |
| 20260508041711 | 59 | 148 | 0.0 | 0.0 | 0.00 | 0.00 | 0.00 | 82 | 1017.3 |
| 20260508041208 | 59 | 135 | 0.0 | 0.0 | 0.00 | 0.00 | 0.00 | 82 | 1017.2 |
| 20260508040705 | 59 | 151 | 0.0 | 0.0 | 0.00 | 0.00 | 0.00 | 81 | 1017.1 |
| 20260508040202 | 59 | 142 | 0.0 | 0.0 | 0.00 | 0.00 | 0.00 | 81 | 1017.1 |
| 20260508035659 | 59 | 142 | 0.0 | 0.0 | 0.00 | 0.00 | 0.00 | 81 | 1016.8 |
| 20260508035157 | 59 | 151 | 0.0 | 0.0 | 0.00 | 0.00 | 0.00 | 81 | 1016.9 |
| 20260508034653 | 59 | 142 | 0.0 | 0.0 | 0.00 | 0.00 | 0.00 | 82 | 1016.8 |
| 20260508034150 | 58 | 142 | 0.0 | 0.0 | 0.00 | 0.00 | 0.00 | 82 | 1016.7 |
| 20260508033647 | 58 | 142 | 0.0 | 0.0 | 0.00 | 0.00 | 0.00 | 82 | 1016.7 |
| 20260508033146 | 58 | 147 | 0.0 | 0.0 | 0.00 | 0.00 | 0.00 | 82 | 1016.6 |
| 20260508032642 | 58 | 146 | 0.0 | 0.0 | 0.00 | 0.00 | 0.00 | 82 | 1016.6 |
| 20260508032139 | 58 | 143 | 0.0 | 0.0 | 0.00 | 0.00 | 0.00 | 82 | 1016.5 |
| 20260508031636 | 58 | 142 | 0.0 | 0.0 | 0.00 | 0.00 | 0.00 | 82 | 1016.4 |
| 20260508031133 | 58 | 161 | 0.0 | 0.0 | 0.00 | 0.00 | 0.00 | 81 | 1016.3 |
| 20260508030629 | 58 | 161 | 0.0 | 0.0 | 0.00 | 0.00 | 0.00 | 81 | 1016.1 |
| 20260508030127 | 58 | 161 | 0.0 | 0.0 | 0.00 | 0.00 | 0.00 | 81 | 1016.4 |
| 20260508025623 | 58 | 134 | 0.0 | 0.0 | 0.00 | 0.00 | 0.00 | 80 | 1016.2 |
| 20260508025120 | 58 | 103 | 0.0 | 0.0 | 0.00 | 0.00 | 0.00 | 81 | 1016.0 |
| 20260508024616 | 58 | 107 | 0.0 | 0.0 | 0.00 | 0.00 | 0.00 | 82 | 1016.3 |
| 20260508024114 | 58 | 137 | 0.0 | 0.0 | 0.00 | 0.00 | 0.00 | 83 | 1016.1 |
| 20260508023609 | 57 | 146 | 0.0 | 0.0 | 0.00 | 0.00 | 0.00 | 84 | 1016.1 |
| 20260508023107 | 57 | 141 | 0.0 | 0.0 | 0.00 | 0.00 | 0.00 | 84 | 1016.1 |
| 20260508022603 | 57 | 134 | 0.0 | 0.0 | 0.00 | 0.00 | 0.00 | 84 | 1015.7 |
| 20260508022100 | 57 | 133 | 0.0 | 0.0 | 0.00 | 0.00 | 0.00 | 84 | 1015.8 |
| 20260508021556 | 57 | 141 | 0.0 | 0.0 | 0.00 | 0.00 | 0.00 | 84 | 1015.6 |
| 20260508021052 | 57 | 141 | 0.0 | 0.0 | 0.00 | 0.00 | 0.00 | 84 | 1015.7 |
| 20260508020550 | 57 | 142 | 0.0 | 0.0 | 0.00 | 0.00 | 0.00 | 84 | 1015.7 |
| 20260508020048 | 58 | 127 | 0.0 | 0.0 | 0.00 | 0.00 | 0.00 | 84 | 1016.0 |
| 20260508015545 | 57 | 130 | 0.0 | 0.0 | 0.00 | 0.00 | 0.00 | 83 | 1015.9 |
| 20260508015041 | 58 | 141 | 0.0 | 0.0 | 0.00 | 0.00 | 0.00 | 83 | 1015.8 |
| 20260508014537 | 58 | 209 | 0.9 | 0.9 | 0.00 | 0.00 | 0.00 | 82 | 1015.9 |
| 20260508014034 | 58 | 140 | 0.0 | 0.0 | 0.00 | 0.00 | 0.00 | 82 | 1015.9 |
| 20260508013530 | 58 | 134 | 0.0 | 0.0 | 0.00 | 0.00 | 0.00 | 83 | 1015.9 |
| 20260508013027 | 57 | 294 | 0.9 | 1.7 | 0.00 | 0.00 | 0.00 | 83 | 1015.9 |
| 20260508012525 | 57 | 130 | 0.0 | 0.0 | 0.00 | 0.00 | 0.00 | 83 | 1016.0 |
| 20260508012023 | 57 | 137 | 0.0 | 0.0 | 0.00 | 0.00 | 0.00 | 83 | 1016.0 |
| 20260508011521 | 57 | 137 | 0.0 | 0.0 | 0.00 | 0.00 | 0.00 | 84 | 1015.9 |
| 20260508011018 | 58 | 137 | 0.0 | 0.0 | 0.00 | 0.00 | 0.00 | 84 | 1016.1 |
| 20260508010514 | 58 | 150 | 0.0 | 0.0 | 0.00 | 0.00 | 0.00 | 85 | 1016.0 |
| 20260508010011 | 58 | 145 | 0.0 | 0.0 | 0.00 | 0.00 | 0.00 | 85 | 1016.2 |
| 20260508005507 | 58 | 145 | 0.0 | 0.0 | 0.00 | 0.00 | 0.00 | 84 | 1016.3 |
| 20260508005004 | 58 | 145 | 0.0 | 0.0 | 0.00 | 0.00 | 0.00 | 85 | 1016.3 |
| 20260508004500 | 58 | 145 | 0.0 | 0.0 | 0.00 | 0.00 | 0.00 | 85 | 1016.3 |
| 20260508003957 | 58 | 145 | 0.0 | 0.0 | 0.00 | 0.00 | 0.00 | 85 | 1016.2 |
| 20260508003449 | 57 | 145 | 0.0 | 0.0 | 0.00 | 0.00 | 0.00 | 85 | 1016.3 |
| 20260508002946 | 57 | 145 | 0.0 | 0.0 | 0.00 | 0.00 | 0.00 | 85 | 1016.3 |
| 20260508002442 | 58 | 145 | 0.0 | 0.0 | 0.00 | 0.00 | 0.00 | 85 | 1016.5 |
| 20260508001938 | 58 | 147 | 0.0 | 0.0 | 0.00 | 0.00 | 0.00 | 84 | 1016.7 |
| 20260508001435 | 58 | 148 | 0.0 | 0.0 | 0.00 | 0.00 | 0.00 | 84 | 1016.6 |
| 20260508000931 | 58 | 151 | 0.0 | 0.0 | 0.00 | 0.00 | 0.00 | 83 | 1016.4 |
| 20260508000427 | 58 | 156 | 0.0 | 0.0 | 0.00 | 0.00 | 0.00 | 83 | 1016.6 |
| 20260507235924 | 59 | 161 | 0.0 | 0.9 | 0.00 | 0.00 | 0.00 | 83 | 1016.7 |
| 20260507235421 | 59 | 145 | 0.0 | 0.0 | 0.00 | 0.00 | 0.00 | 82 | 1016.8 |
| 20260507234918 | 59 | 143 | 0.0 | 0.0 | 0.00 | 0.00 | 0.00 | 82 | 1016.8 |
| 20260507234415 | 59 | 125 | 0.0 | 0.0 | 0.00 | 0.00 | 0.00 | 82 | 1016.8 |
| 20260507233911 | 59 | 100 | 0.0 | 0.9 | 0.00 | 0.00 | 0.00 | 83 | 1016.9 |
| 20260507233409 | 58 | 149 | 0.0 | 0.0 | 0.00 | 0.00 | 0.00 | 82 | 1016.8 |
| 20260507232908 | 58 | 114 | 0.9 | 0.9 | 0.00 | 0.00 | 0.00 | 82 | 1016.6 |
| 20260507232403 | 59 | 148 | 0.0 | 0.0 | 0.00 | 0.00 | 0.00 | 81 | 1016.7 |
| 20260507231901 | 59 | 156 | 0.0 | 0.0 | 0.00 | 0.00 | 0.00 | 81 | 1016.7 |
| 20260507231357 | 59 | 149 | 0.0 | 0.9 | 0.00 | 0.00 | 0.00 | 80 | 1016.9 |
| 20260507230853 | 59 | 125 | 0.0 | 0.0 | 0.00 | 0.00 | 0.00 | 81 | 1016.7 |
| 20260507230351 | 59 | 134 | 0.0 | 0.0 | 0.00 | 0.00 | 0.00 | 82 | 1016.9 |
| 20260507225850 | 58 | 159 | 0.0 | 0.9 | 0.00 | 0.00 | 0.00 | 83 | 1016.9 |
| 20260507225347 | 57 | 218 | 0.9 | 0.9 | 0.00 | 0.00 | 0.00 | 84 | 1017.2 |
| 20260507224843 | 58 | 137 | 0.0 | 0.0 | 0.00 | 0.00 | 0.00 | 85 | 1017.2 |
| 20260507224340 | 57 | 139 | 0.0 | 0.0 | 0.00 | 0.00 | 0.00 | 86 | 1017.2 |
| 20260507223836 | 57 | 137 | 0.0 | 0.0 | 0.00 | 0.00 | 0.00 | 87 | 1017.1 |
| 20260507223332 | 57 | 131 | 0.0 | 0.0 | 0.00 | 0.00 | 0.00 | 87 | 1016.8 |
| 20260507222830 | 57 | 137 | 0.0 | 0.0 | 0.00 | 0.00 | 0.00 | 87 | 1017.3 |
| 20260507222326 | 57 | 132 | 0.0 | 0.0 | 0.00 | 0.00 | 0.00 | 88 | 1017.2 |
| 20260507221823 | 57 | 133 | 0.0 | 0.0 | 0.00 | 0.00 | 0.00 | 88 | 1017.4 |
| 20260507221320 | 57 | 131 | 0.0 | 0.0 | 0.00 | 0.00 | 0.00 | 88 | 1017.4 |
| 20260507220816 | 57 | 132 | 0.0 | 0.0 | 0.00 | 0.00 | 0.00 | 88 | 1017.2 |
| 20260507220314 | 57 | 138 | 0.0 | 0.0 | 0.00 | 0.00 | 0.00 | 88 | 1017.1 |
| 20260507215809 | 57 | 314 | 0.9 | 0.9 | 0.00 | 0.00 | 0.00 | 89 | 1016.9 |
| 20260507215308 | 57 | 141 | 0.0 | 0.0 | 0.00 | 0.00 | 0.00 | 89 | 1017.2 |
| 20260507214804 | 57 | 127 | 0.0 | 0.0 | 0.00 | 0.00 | 0.00 | 89 | 1016.9 |
| 20260507214302 | 57 | 137 | 0.0 | 0.0 | 0.00 | 0.00 | 0.00 | 88 | 1017.1 |
| 20260507213802 | 57 | 151 | 0.0 | 0.0 | 0.00 | 0.00 | 0.00 | 88 | 1017.1 |
| 20260507213259 | 58 | 131 | 0.0 | 0.0 | 0.00 | 0.00 | 0.00 | 87 | 1016.9 |
| 20260507212756 | 58 | 175 | 1.7 | 1.7 | 0.00 | 0.00 | 0.00 | 87 | 1017.2 |
| 20260507212252 | 58 | 152 | 0.0 | 0.9 | 0.00 | 0.00 | 0.00 | 86 | 1017.3 |
| 20260507211748 | 58 | 284 | 2.6 | 2.6 | 0.00 | 0.00 | 0.00 | 86 | 1016.8 |
| 20260507211245 | 59 | 141 | 0.0 | 0.0 | 0.00 | 0.00 | 0.00 | 86 | 1016.8 |
| 20260507210742 | 59 | 280 | 1.7 | 1.7 | 0.00 | 0.00 | 0.00 | 85 | 1016.9 |
| 20260507210239 | 59 | 292 | 1.7 | 1.7 | 0.00 | 0.00 | 0.00 | 85 | 1017.1 |
| 20260507205735 | 59 | 141 | 0.9 | 0.9 | 0.00 | 0.00 | 0.00 | 84 | 1016.8 |
| 20260507205232 | 59 | 282 | 0.9 | 0.9 | 0.00 | 0.00 | 0.00 | 84 | 1016.9 |
| 20260507204728 | 59 | 133 | 0.9 | 0.9 | 0.00 | 0.00 | 0.00 | 84 | 1016.6 |
| 20260507204227 | 59 | 185 | 0.9 | 0.9 | 0.00 | 0.00 | 0.00 | 84 | 1016.6 |
| 20260507203724 | 59 | 212 | 0.0 | 0.9 | 0.00 | 0.00 | 0.00 | 85 | 1016.8 |
| 20260507203221 | 58 | 291 | 0.9 | 1.7 | 0.00 | 0.00 | 0.00 | 86 | 1016.4 |
| 20260507202717 | 59 | 55 | 0.9 | 0.9 | 0.00 | 0.00 | 0.00 | 86 | 1016.5 |
| 20260507202213 | 59 | 175 | 0.9 | 0.9 | 0.00 | 0.00 | 0.00 | 85 | 1016.6 |
| 20260507201708 | 58 | 158 | 0.0 | 0.0 | 0.00 | 0.00 | 0.00 | 85 | 1016.4 |
| 20260507201206 | 58 | 190 | 0.0 | 0.0 | 0.00 | 0.00 | 0.00 | 85 | 1016.7 |
| 20260507200702 | 59 | 167 | 0.0 | 0.9 | 0.00 | 0.00 | 0.00 | 85 | 1016.5 |
| 20260507200158 | 59 | 133 | 0.0 | 0.0 | 0.00 | 0.00 | 0.00 | 85 | 1016.5 |
| 20260507195654 | 59 | 154 | 0.0 | 0.0 | 0.00 | 0.00 | 0.00 | 85 | 1016.4 |
| 20260507195152 | 59 | 135 | 0.0 | 0.0 | 0.00 | 0.00 | 0.00 | 84 | 1016.5 |
| 20260507194648 | 59 | 144 | 0.0 | 0.0 | 0.00 | 0.00 | 0.00 | 84 | 1016.6 |
| 20260507194144 | 59 | 20 | 0.9 | 0.9 | 0.00 | 0.00 | 0.00 | 84 | 1016.6 |
| 20260507193641 | 59 | 36 | 0.9 | 0.9 | 0.00 | 0.00 | 0.00 | 84 | 1016.6 |
| 20260507193138 | 59 | 134 | 0.0 | 0.9 | 0.00 | 0.00 | 0.00 | 84 | 1016.7 |
| 20260507192634 | 59 | 184 | 0.0 | 0.9 | 0.00 | 0.00 | 0.00 | 84 | 1016.7 |
| 20260507192131 | 59 | 96 | 0.0 | 0.0 | 0.00 | 0.00 | 0.00 | 84 | 1016.4 |
| 20260507191627 | 59 | 99 | 0.0 | 0.9 | 0.00 | 0.00 | 0.00 | 84 | 1016.6 |
| 20260507191124 | 59 | 166 | 0.9 | 0.9 | 0.00 | 0.00 | 0.00 | 83 | 1016.6 |
| 20260507190621 | 60 | 118 | 0.0 | 0.9 | 0.00 | 0.00 | 0.00 | 83 | 1016.5 |
| 20260507190120 | 60 | 142 | 0.0 | 0.0 | 0.00 | 0.00 | 0.00 | 82 | 1016.8 |
| 20260507185618 | 60 | 135 | 0.0 | 0.9 | 0.00 | 0.00 | 0.00 | 82 | 1016.7 |
| 20260507185114 | 60 | 142 | 0.0 | 0.0 | 0.00 | 0.00 | 0.00 | 80 | 1016.6 |
| 20260507184612 | 60 | 147 | 0.0 | 0.0 | 0.00 | 0.00 | 0.00 | 79 | 1016.7 |
| 20260507184110 | 61 | 141 | 0.0 | 0.0 | 0.00 | 0.00 | 0.00 | 79 | 1016.8 |
| 20260507183606 | 61 | 244 | 0.9 | 0.9 | 0.00 | 0.00 | 0.00 | 78 | 1016.7 |
| 20260507183103 | 62 | 146 | 0.0 | 0.9 | 0.00 | 0.00 | 0.00 | 75 | 1016.7 |
| 20260507182559 | 62 | 169 | 0.9 | 0.9 | 0.00 | 0.00 | 0.00 | 69 | 1016.7 |
| 20260507182055 | 63 | 180 | 0.0 | 0.0 | 0.00 | 0.00 | 0.00 | 70 | 1016.7 |
| 20260507181553 | 63 | 125 | 0.0 | 0.9 | 0.00 | 0.00 | 0.00 | 69 | 1016.5 |
| 20260507181049 | 63 | 134 | 0.0 | 0.9 | 0.00 | 0.00 | 0.00 | 68 | 1016.4 |
| 20260507180545 | 63 | 160 | 0.0 | 0.0 | 0.00 | 0.00 | 0.00 | 69 | 1016.5 |
| 20260507180042 | 64 | 173 | 0.0 | 0.0 | 0.00 | 0.00 | 0.00 | 67 | 1016.5 |
| 20260507175538 | 63 | 135 | 0.0 | 0.0 | 0.00 | 0.00 | 0.00 | 65 | 1016.6 |
| 20260507175036 | 64 | 225 | 0.9 | 0.9 | 0.00 | 0.00 | 0.00 | 66 | 1016.7 |
| 20260507174533 | 64 | 144 | 0.0 | 0.0 | 0.00 | 0.00 | 0.00 | 65 | 1016.5 |
| 20260507174031 | 64 | 146 | 0.0 | 0.0 | 0.00 | 0.00 | 0.00 | 65 | 1016.4 |
| 20260507173527 | 64 | 114 | 0.0 | 0.9 | 0.00 | 0.00 | 0.00 | 66 | 1016.6 |
| 20260507173025 | 64 | 140 | 0.0 | 0.9 | 0.00 | 0.00 | 0.00 | 64 | 1016.3 |
| 20260507172520 | 65 | 147 | 0.0 | 0.0 | 0.00 | 0.00 | 0.00 | 64 | 1016.1 |
| 20260507172017 | 65 | 148 | 0.9 | 0.9 | 0.00 | 0.00 | 0.00 | 64 | 1016.2 |
| 20260507171513 | 65 | 146 | 0.9 | 0.9 | 0.00 | 0.00 | 0.00 | 61 | 1016.3 |
| 20260507171010 | 65 | 132 | 0.9 | 0.9 | 0.00 | 0.00 | 0.00 | 62 | 1016.2 |
| 20260507170507 | 65 | 133 | 0.0 | 0.0 | 0.00 | 0.00 | 0.00 | 63 | 1016.3 |
| 20260507170003 | 65 | 132 | 0.0 | 0.0 | 0.00 | 0.00 | 0.00 | 62 | 1016.5 |
| 20260507165459 | 66 | 131 | 0.9 | 0.9 | 0.00 | 0.00 | 0.00 | 61 | 1016.2 |
| 20260507164950 | 66 | 162 | 0.9 | 0.9 | 0.00 | 0.00 | 0.00 | 59 | 1016.3 |
| 20260507164447 | 66 | 229 | 1.7 | 1.7 | 0.00 | 0.00 | 0.00 | 60 | 1016.0 |
| 20260507163944 | 66 | 135 | 0.0 | 0.0 | 0.00 | 0.00 | 0.00 | 61 | 1016.1 |
| 20260507163442 | 66 | 137 | 0.0 | 0.0 | 0.00 | 0.00 | 0.00 | 61 | 1016.2 |
| 20260507162938 | 67 | 135 | 0.0 | 0.0 | 0.00 | 0.00 | 0.00 | 60 | 1015.9 |
| 20260507162434 | 67 | 130 | 1.7 | 1.7 | 0.00 | 0.00 | 0.00 | 60 | 1015.9 |
| 20260507161931 | 68 | 154 | 0.0 | 0.0 | 0.00 | 0.00 | 0.00 | 61 | 1015.8 |
| 20260507161428 | 68 | 209 | 0.0 | 0.9 | 0.00 | 0.00 | 0.00 | 61 | 1016.1 |
| 20260507160924 | 69 | 151 | 0.0 | 0.9 | 0.00 | 0.00 | 0.00 | 60 | 1015.8 |
| 20260507160420 | 70 | 205 | 0.0 | 0.9 | 0.00 | 0.00 | 0.00 | 60 | 1015.9 |
| 20260507155916 | 71 | 319 | 0.0 | 0.9 | 0.00 | 0.00 | 0.00 | 58 | 1015.7 |
| 20260507155412 | 71 | 118 | 0.9 | 1.7 | 0.00 | 0.00 | 0.00 | 58 | 1015.8 |
| 20260507154909 | 71 | 204 | 1.7 | 1.7 | 0.00 | 0.00 | 0.00 | 58 | 1015.8 |
| 20260507154406 | 72 | 133 | 0.0 | 0.9 | 0.00 | 0.00 | 0.00 | 58 | 1016.0 |
| 20260507153903 | 72 | 144 | 0.0 | 0.9 | 0.00 | 0.00 | 0.00 | 57 | 1015.7 |
| 20260507153359 | 72 | 120 | 0.9 | 0.9 | 0.00 | 0.00 | 0.00 | 56 | 1015.8 |
| 20260507152856 | 73 | 157 | 0.0 | 0.9 | 0.00 | 0.00 | 0.00 | 55 | 1015.9 |
| 20260507152353 | 74 | 152 | 0.9 | 0.9 | 0.00 | 0.00 | 0.00 | 53 | 1016.1 |
| 20260507151849 | 73 | 162 | 0.0 | 0.0 | 0.00 | 0.00 | 0.00 | 54 | 1016.1 |
| 20260507151345 | 74 | 153 | 0.9 | 0.9 | 0.00 | 0.00 | 0.00 | 52 | 1016.1 |
| 20260507150842 | 74 | 149 | 0.0 | 0.0 | 0.00 | 0.00 | 0.00 | 54 | 1016.1 |
| 20260507150339 | 74 | 152 | 0.9 | 0.9 | 0.00 | 0.00 | 0.00 | 54 | 1016.2 |
| 20260507145835 | 73 | 144 | 0.9 | 1.7 | 0.00 | 0.00 | 0.00 | 54 | 1016.0 |
| 20260507145331 | 75 | 146 | 1.7 | 1.7 | 0.00 | 0.00 | 0.00 | 51 | 1015.8 |
| 20260507144828 | 75 | 170 | 0.9 | 1.7 | 0.00 | 0.00 | 0.00 | 52 | 1015.9 |
| 20260507144326 | 75 | 153 | 0.9 | 1.7 | 0.00 | 0.00 | 0.00 | 51 | 1016.0 |
| 20260507143822 | 75 | 286 | 2.6 | 4.3 | 0.00 | 0.00 | 0.00 | 51 | 1016.1 |
| 20260507143319 | 76 | 281 | 1.7 | 2.6 | 0.00 | 0.00 | 0.00 | 51 | 1015.9 |
| 20260507142814 | 76 | 179 | 0.9 | 1.7 | 0.00 | 0.00 | 0.00 | 51 | 1015.9 |
| 20260507142311 | 77 | 1 | 2.6 | 2.6 | 0.00 | 0.00 | 0.00 | 50 | 1015.9 |